FW9069 Weather Reports


time (UTC)temp
F
wind
direction
speed
knots
gust
knots
rain 1hr
in
rain 24hr
in
rain mn
in
humidity
%
barometer
mb
20260507210343 70 340 1.7 7.0 0.00 0.00 0.00 57 1019.1
20260507204827 69 212 2.6 6.1 0.00 0.00 0.00 59 1019.4
20260507203349 68 236 2.6 6.1 0.00 0.00 0.00 62 1019.6
20260507201817 67 10 3.5 7.0 0.00 0.00 0.00 62 1019.7
20260507200342 66 39 1.7 6.1 0.00 0.00 0.00 59 1019.8
20260507194824 65 328 3.5 8.7 0.00 0.00 0.00 66 1020.1
20260507193332 64 43 1.7 6.1 0.00 0.00 0.00 67 1020.1
20260507191834 63 317 0.9 3.5 0.00 0.00 0.00 70 1020.2
20260507190347 62 215 1.7 4.3 0.00 0.00 0.00 65 1020.4
20260507184832 60 227 0.9 3.5 0.00 0.00 0.00 72 1020.5
20260507183347 60 327 2.6 5.2 0.00 0.00 0.00 70 1020.5
20260507181853 60 310 0.9 6.1 0.00 0.00 0.00 73 1020.7
20260507180353 59 346 2.6 7.0 0.00 0.00 0.00 76 1020.8
20260507174823 58 354 2.6 6.1 0.00 0.00 0.00 75 1020.9
20260507173333 58 327 4.3 7.0 0.00 0.00 0.00 73 1020.9
20260507171842 58 337 2.6 7.8 0.00 0.00 0.00 75 1020.9
20260507170321 57 326 3.5 7.0 0.00 0.00 0.00 78 1020.9
20260507164826 56 324 1.7 4.3 0.00 0.00 0.00 79 1020.9
20260507163352 55 320 3.5 7.0 0.00 0.00 0.00 79 1020.9
20260507161840 55 353 3.5 8.7 0.00 0.00 0.00 80 1021.0
20260507160355 55 358 3.5 7.0 0.00 0.00 0.00 80 1020.9
20260507154838 54 341 4.3 7.0 0.00 0.00 0.00 81 1020.9
20260507153324 53 318 1.7 6.1 0.00 0.00 0.00 83 1021.0
20260507151814 53 328 4.3 7.8 0.00 0.00 0.00 84 1021.1
20260507150326 53 311 0.9 5.2 0.00 0.00 0.00 85 1021.1
20260507144814 53 322 2.6 5.2 0.00 0.00 0.00 87 1021.1
20260507143345 52 319 2.6 4.3 0.00 0.00 0.00 87 1021.0
20260507141830 52 319 2.6 4.3 0.00 0.00 0.00 89 1020.9
20260507140321 52 320 0.9 2.6 0.00 0.00 0.00 89 1020.7
20260507134835 52 320 0.0 2.6 0.00 0.00 0.00 89 1020.6
20260507133344 52 320 0.0 1.7 0.00 0.00 0.00 89 1020.5
20260507131830 52 320 1.7 2.6 0.00 0.00 0.00 89 1020.6
20260507130319 52 320 0.0 1.7 0.00 0.00 0.00 89 1020.8
20260507124826 52 320 0.9 2.6 0.00 0.00 0.00 89 1020.7
20260507123354 52 320 0.0 2.6 0.00 0.00 0.00 89 1020.8
20260507121821 52 320 1.7 2.6 0.00 0.00 0.00 88 1020.8
20260507120350 52 320 0.9 2.6 0.00 0.00 0.00 88 1020.9
20260507114857 52 321 1.7 3.5 0.00 0.00 0.00 88 1021.0
20260507113341 52 315 1.7 2.6 0.00 0.00 0.00 88 1021.1
20260507111835 52 311 0.9 3.5 0.00 0.00 0.00 88 1021.2
20260507110356 52 288 0.9 3.5 0.00 0.00 0.00 88 1021.1
20260507104823 52 261 0.0 2.6 0.00 0.00 0.00 88 1021.1
20260507103331 52 242 0.0 0.9 0.00 0.00 0.00 88 1021.3
20260507101839 52 242 0.9 4.3 0.00 0.00 0.00 87 1021.3
20260507100330 52 250 1.7 6.1 0.00 0.00 0.00 87 1021.4
20260507094820 52 231 3.5 6.1 0.00 0.00 0.00 87 1021.4
20260507093329 53 244 1.7 6.1 0.00 0.00 0.00 86 1021.6
20260507091837 53 238 0.9 4.3 0.00 0.00 0.00 86 1021.6
20260507090348 53 249 1.7 3.5 0.00 0.00 0.00 86 1021.9
20260507084858 53 262 1.7 4.3 0.00 0.00 0.00 87 1021.9
20260507083324 53 238 0.0 2.6 0.00 0.00 0.00 87 1021.8
20260507081833 53 230 2.6 4.3 0.00 0.00 0.00 87 1021.7
20260507080322 53 238 1.7 7.0 0.00 0.00 0.00 87 1021.7
20260507074829 53 239 4.3 7.8 0.00 0.00 0.00 87 1021.7
20260507073335 53 249 6.1 8.7 0.00 0.00 0.00 87 1021.7
20260507071825 53 239 5.2 8.7 0.00 0.00 0.00 86 1021.7
20260507070317 53 235 4.3 7.8 0.00 0.00 0.00 86 1021.6
20260507064826 53 214 5.2 9.6 0.00 0.00 0.00 86 1021.6
20260507063334 53 238 3.5 8.7 0.00 0.00 0.00 87 1021.6
20260507060332 52 230 6.1 10.4 0.00 0.00 0.00 87 1021.7
20260507054835 52 234 6.1 10.4 0.00 0.00 0.00 87 1021.5
20260507053345 52 237 7.8 13.9 0.00 0.00 0.00 86 1021.5
20260507051835 52 229 9.6 16.5 0.00 0.00 0.00 86 1021.3
20260507050323 52 247 8.7 16.5 0.00 0.00 0.00 85 1021.5
20260507044851 52 266 11.3 16.5 0.00 0.00 0.00 85 1021.3
20260507043338 52 237 9.6 19.1 0.00 0.00 0.00 84 1021.3
20260507041823 53 258 9.6 14.8 0.00 0.00 0.00 84 1021.1
20260507040326 53 235 9.6 16.5 0.00 0.00 0.00 84 1020.9
20260507034815 53 223 9.6 15.6 0.00 0.00 0.00 84 1020.8
20260507033347 54 244 9.6 16.5 0.00 0.00 0.00 83 1020.7
20260507031854 54 211 9.6 13.9 0.00 0.00 0.00 83 1020.6
20260507030323 55 220 7.0 12.2 0.00 0.00 0.00 81 1020.5
20260507024827 56 221 5.2 12.2 0.00 0.00 0.00 80 1020.5
20260507023358 57 227 7.8 13.0 0.00 0.00 0.00 78 1020.4
20260507021823 59 242 6.1 13.0 0.00 0.00 0.00 76 1020.4
20260507020331 60 221 7.8 14.8 0.00 0.00 0.00 74 1020.5
20260507014814 61 242 7.0 15.6 0.00 0.00 0.00 72 1020.6
20260507013349 63 244 7.0 13.0 0.00 0.00 0.00 71 1020.6
20260507011829 63 212 6.1 11.3 0.00 0.00 0.00 71 1020.5
20260507010344 64 243 8.7 14.8 0.00 0.00 0.00 69 1020.7
20260507004832 66 231 7.8 13.0 0.00 0.00 0.00 68 1020.7
20260507003342 67 225 4.3 12.2 0.00 0.00 0.00 66 1020.6
20260507001851 67 252 6.1 13.9 0.00 0.00 0.00 65 1020.6
20260507000338 68 238 5.2 10.4 0.00 0.00 0.00 64 1020.6
20260506234846 69 239 6.1 13.0 0.00 0.00 0.00 64 1020.6
20260506233350 70 253 4.3 9.6 0.00 0.00 0.00 62 1020.5
20260506231836 72 227 4.3 9.6 0.00 0.00 0.00 62 1020.6
20260506230327 72 209 5.2 10.4 0.00 0.00 0.00 62 1020.5
20260506224838 73 225 4.3 10.4 0.00 0.00 0.00 63 1020.7
20260506223327 73 214 4.3 7.0 0.00 0.00 0.00 65 1020.8
20260506221830 72 202 3.5 7.8 0.00 0.00 0.00 62 1020.9
20260506220333 72 233 2.6 7.0 0.00 0.00 0.00 65 1020.8
20260506214837 71 216 4.3 8.7 0.00 0.00 0.00 67 1020.9
20260506213322 70 222 3.5 7.8 0.00 0.00 0.00 66 1021.0
20260506211827 69 117 2.6 6.1 0.00 0.00 0.00 67 1020.9